Beaufort, NC

3:26 PM EST on December 15, 2019 (GMT -0500)
Smith

Weather History for KMRH - October, 2019

Change the Weather History Date:

Tuesday, October 15, 2019

  Actual Average Record
Temperature  
Mean Temperature 67 °F -  
Max Temperature 77 °F 77 °F 86 °F (1990)
Min Temperature 57 °F 54 °F 37 °F (1988)
Cooling Degree Days 2    
Growing Degree Days 17 (Base 50)    
Moisture  
Dew Point 60 °F    
Average Humidity 81    
Maximum Humidity 100    
Minimum Humidity 43    
Precipitation  
Precipitation 0.00 in - - ()
Sea Level Pressure  
Sea Level Pressure 30.08 in    
Wind  
Wind Speed 4 mph (NE)    
Max Wind Speed 8 mph    
Max Gust Speed -    
Visibility 8 miles    
Events Fog    
Averages and records for this station are not official NWS values.
T = Trace of Precipitation, MM = Missing Value Source: NWS Daily Summary

Daily Weather History Graph

Daily Weather History Graph

Search for Another Location

Airport or City:

Astronomy

Oct. 15, 2019 Rise Set
Actual Time 7:12 AM EDT 6:32 PM EDT
Civil Twilight 6:46 AM EDT 6:57 PM EDT
Nautical Twilight 6:17 AM EDT 7:26 PM EDT
Astronomical Twilight 5:48 AM EDT 7:56 PM EDT
Moon 7:54 PM EDT 8:38 AM EDT
Length of Visible Light 12h 10m
Length of Day
11h 20m
Full, 97% of the Moon is Illuminated
Oct 15
Full
Oct 21
Last Quarter
Oct 27
New
Nov 4
First Quarter
Nov 12
Full

Hourly Weather History & Observations

Time (EDT) Temp. Dew Point Humidity Pressure Visibility Wind Dir Wind Speed Gust Speed Precip Events Conditions
12:58 AM 68.0 °F 66.0 °F 93% 30.08 in 10.0 mi North 3.5 mph - N/A   Clear
1:58 AM 66.9 °F 64.0 °F 90% 30.08 in 10.0 mi NNW 6.9 mph - N/A   Clear
2:58 AM 66.0 °F 62.1 °F 87% 30.08 in 10.0 mi North 8.1 mph - N/A   Clear
3:58 AM 64.0 °F 61.0 °F 90% 30.07 in 10.0 mi NNE 4.6 mph - N/A   Clear
4:58 AM 63.0 °F 61.0 °F 93% 30.08 in 10.0 mi NE 4.6 mph - N/A   Clear
5:58 AM 61.0 °F 61.0 °F 100% 30.09 in 10.0 mi Calm Calm - N/A   Clear
6:58 AM 61.0 °F 60.1 °F 97% 30.11 in 5.0 mi Calm Calm - N/A   Clear
7:10 AM 61.0 °F 61.0 °F 100% 30.10 in 1.8 mi Calm Calm - N/A   Clear
7:17 AM 60.1 °F 60.1 °F 100% 30.10 in 0.2 mi Calm Calm - N/A Fog Fog
7:46 AM 57.9 °F 57.9 °F 100% 30.10 in 2.0 mi Calm Calm - N/A   Clear
7:55 AM 59.0 °F 59.0 °F 100% 30.11 in 4.0 mi Calm Calm - N/A   Clear
7:58 AM 59.0 °F 59.0 °F 100% 30.11 in 4.0 mi Calm Calm - N/A   Clear
8:58 AM 68.0 °F 64.0 °F 87% 30.14 in 10.0 mi NNE 3.5 mph - N/A   Clear
9:58 AM 70.0 °F 64.0 °F 81% 30.13 in 10.0 mi NNE 5.8 mph - N/A   Clear
10:58 AM 72.0 °F 61.0 °F 68% 30.12 in 10.0 mi NE 6.9 mph - N/A   Clear
11:58 AM 75.0 °F 55.0 °F 50% 30.11 in 10.0 mi NE 6.9 mph - N/A   Clear
12:58 PM 77.0 °F 53.1 °F 43% 30.10 in 10.0 mi Variable 5.8 mph - N/A   Clear
1:58 PM 75.0 °F 53.1 °F 46% 30.09 in 10.0 mi East 6.9 mph - N/A   Clear
2:58 PM 75.0 °F 54.0 °F 48% 30.07 in 10.0 mi East 6.9 mph - N/A   Clear
3:58 PM 73.9 °F 55.0 °F 52% 30.06 in 10.0 mi East 5.8 mph - N/A   Clear
4:58 PM 73.0 °F 57.0 °F 57% 30.06 in 10.0 mi East 4.6 mph - N/A   Clear
5:58 PM 71.1 °F 60.1 °F 68% 30.05 in 10.0 mi East 4.6 mph - N/A   Clear
7:58 PM 66.9 °F 61.0 °F 81% 30.04 in 10.0 mi NE 4.6 mph - N/A   Clear
8:58 PM 66.9 °F 62.1 °F 84% 30.03 in 10.0 mi NE 4.6 mph - N/A   Clear
10:58 PM 66.0 °F 64.9 °F 96% 30.01 in 10.0 mi Calm Calm - N/A   Clear
11:58 PM 64.9 °F 64.0 °F 97% 30.00 in 10.0 mi NE 4.6 mph - N/A   Clear